Regional Weather Roundup
Issued by NWS

Home | Current Version | Previous Version | Text Only | Print | Product List | Glossary Off
Versions: 1 2 3 4 5 6 7 8 9 10 11 12 13 14 15 16 17 18 19 20 21 22 23 24 25 26 27 28 29 30 31 32 33 34 35 36 37 38 39 40 41 42 43 44 45 46 47 48 49 50

000
ASUS45 KABQ 270910
RWRNM
NEW MEXICO REGIONAL WEATHER ROUNDUP
NATIONAL WEATHER SERVICE ALBUQUERQUE NM
300 AM MDT WED MAY 27 2015

NOTE: "FAIR" MEANS FEW OR NO CLOUDS BELOW 12,000 FEET AGL WITH NO
       SIGNIFICANT WEATHER OR OBSTRUCTIONS TO VISION.

      THIS PRODUCT IS RELEASED AS TWO VERSIONS.  ONE VERSION NEAR
      THE TOP OF THE HOUR CONTAINING PRELIMINARY DATA FROM ALBUQUERQUE
      AND OTHER STATIONS.  A FINAL VERSION WITH ADDITIONAL DATA IS
      ISSUED ABOUT 10 MINUTES AFTER THE HOUR.

NMZ501-503-504-510>518-271000-
NORTHWEST PLATEAU/NORTHCENTRAL MOUNTAINS

CITY           SKY/WX    TMP DP  RH WIND       PRES   REMARKS
FARMINGTON     CLEAR     54  43  66 E9        30.11R
LOS ALAMOS     CLEAR     53  37  53 CALM      30.22S
SANTA FE       PTCLDY    49  42  77 N7        30.16S
TAOS           CLEAR     45  32  61 NE5       30.23R
ANGEL FIRE     PTSUNNY   39  36  88 CALM      30.29S

$$
NMZ402-403-502-505>509-271000-
WESTCENTRAL MOUNTAINS/SOUTHWEST MOUNTAINS

CITY           SKY/WX    TMP DP  RH WIND       PRES   REMARKS
GALLUP         CLEAR     44  35  70 NE7       30.17F
GRANTS         PTCLDY    49  33  55 NW3       30.20R
SILVER CITY      N/A     54  19  26 N10       30.11F

$$
NMZ407-409-411-412-271000-
SOUTHERN DESERTS

CITY           SKY/WX    TMP DP  RH WIND       PRES   REMARKS
LORDSBURG      FAIR      59  21  23 W5        30.04S
DEMING         CLEAR     53  26  35 W5        30.05R
LAS CRUCES     CLEAR     60  21  22 W7        30.05S
HOLLOMAN AFB   PTCLDY    59  33  37 N7        30.02R
ALAMOGORDO     PTCLDY    57  30  35 N5        30.04S
T OR C         CLEAR     61  24  24 W5        30.06R

$$
NMZ519>523-271000-
CENTRAL VALLEYS/CENTRAL HIGHLANDS

CITY           SKY/WX    TMP DP  RH WIND       PRES   REMARKS
ALBUQUERQUE    PTCLDY    62  43  49 NW10      30.11R
DOUBLE EAGLE   PTCLDY    51  45  78 N7        30.14S
MORIARTY ARPT  FAIR      51  43  73 W3        30.17S
CLINES CORNERS PTCLDY    52  40  63 N8        30.19S
BELEN          FAIR      56  49  77 NW3       30.10S
SOCORRO        FAIR      58  41  53 CALM      30.07S

$$
NMZ524>526-539-540-271000-
SOUTHCENTRAL MOUNTAINS

CITY           SKY/WX    TMP DP  RH WIND       PRES   REMARKS
RUIDOSO        PTCLDY    55  28  35 CALM      30.22S

$$
NMZ527>531-271000-
NORTHEAST HIGHLANDS/NORTHEAST PLAINS

CITY           SKY/WX    TMP DP  RH WIND       PRES   REMARKS
LAS VEGAS      LGT RAIN  57  37  47 CALM      30.19F
RATON          CLEAR     48  43  82 N6        30.17R
CLAYTON        CLEAR     51  46  83 CALM      30.12S

$$
NMZ532>537-271000-
EASTCENTRAL PLAINS

CITY           SKY/WX    TMP DP  RH WIND       PRES   REMARKS
TUCUMCARI      PTCLDY    59  50  72 SW7       30.06R
CANNON AFB     NOT AVBL
CLOVIS AIRPORT PTCLDY    55  50  82 E5        30.04S

$$
NMZ028-029-538-271000-
SOUTHEAST PLAINS

CITY           SKY/WX    TMP DP  RH WIND       PRES   REMARKS
ROSWELL        PTCLDY    57  45  64 CALM      30.02R
ARTESIA        CLEAR     59  36  41 SE9       30.03S
CARLSBAD       CLEAR     61  40  45 SW3       30.01R
HOBBS          PTCLDY    61  61 100 CALM      30.05S


$$


USA.gov is the U.S. government's official web portal to all federal, state and local government web resources and services.